UAE384 OMDB-VTBS

Flight info

Callsign UAE384
Flight time N/A
Altitude 37000
Route IVURO M677 LALDO B505 NADSO B524 ALPOR M504 TELEM A791 DAMAK/N0492F390 A791 BPL T1 BBS N895 BETNO P646 TARED WILLA1C
Aircraft A388/J-SADE2E3FGHIJ3J4J5M1RWXY/LB1D1

Departure

Time 2026-05-06 10:30
Airport Dubai International Airport (OMDB)

Arrival

Time N/A
Airport Suvarnabhumi Airport (VTBS)
Time Latitude Longitude Altitude Speed Heading
2026-05-06 10:05 25.24927 55.36225 27 ft 0 kts 211°
2026-05-06 10:16 25.24941 55.36234 26 ft 4 kts 211°
2026-05-06 10:16 25.24965 55.36250 25 ft 4 kts 211°
2026-05-06 10:16 25.24983 55.36262 26 ft 4 kts 201°
2026-05-06 10:17 25.25003 55.36265 25 ft 4 kts 167°
2026-05-06 10:17 25.25019 55.36255 25 ft 4 kts 128°
2026-05-06 10:17 25.25027 55.36241 26 ft 4 kts 122°
2026-05-06 10:17 25.25041 55.36215 25 ft 4 kts 122°
2026-05-06 10:18 25.25055 55.36192 25 ft 1 kts 122°
2026-05-06 10:18 25.25055 55.36191 25 ft 0 kts 122°
2026-05-06 10:21 25.25055 55.36192 25 ft 1 kts 122°
2026-05-06 10:21 25.25044 55.36211 25 ft 5 kts 122°
2026-05-06 10:21 25.25030 55.36236 25 ft 0 kts 122°
2026-05-06 10:24 25.25029 55.36238 27 ft 2 kts 122°
2026-05-06 10:24 25.25007 55.36278 27 ft 13 kts 122°
2026-05-06 10:25 25.24950 55.36378 27 ft 18 kts 122°
2026-05-06 10:25 25.24877 55.36507 27 ft 22 kts 121°
2026-05-06 10:25 25.24801 55.36663 27 ft 25 kts 110°
2026-05-06 10:25 25.24752 55.36847 27 ft 23 kts 115°
2026-05-06 10:26 25.24665 55.37003 27 ft 25 kts 122°
2026-05-06 10:26 25.24569 55.37175 27 ft 25 kts 121°
2026-05-06 10:26 25.24488 55.37318 27 ft 23 kts 122°
2026-05-06 10:26 25.24398 55.37479 27 ft 26 kts 122°
2026-05-06 10:27 25.24319 55.37620 27 ft 17 kts 118°
2026-05-06 10:27 25.24344 55.37714 27 ft 14 kts 37°
2026-05-06 10:27 25.24430 55.37778 27 ft 16 kts 34°
2026-05-06 10:27 25.24523 55.37848 27 ft 17 kts 35°
2026-05-06 10:28 25.24620 55.37921 27 ft 13 kts 33°
2026-05-06 10:28 25.24673 55.37959 27 ft 5 kts 33°
2026-05-06 10:28 25.24679 55.37964 27 ft 0 kts 32°
2026-05-06 10:28 25.24696 55.37976 27 ft 5 kts 32°
2026-05-06 10:29 25.24738 55.38004 27 ft 9 kts 30°
2026-05-06 10:29 25.24795 55.38015 27 ft 8 kts 336°
2026-05-06 10:29 25.24830 55.37975 27 ft 9 kts 303°
2026-05-06 10:29 25.24979 55.37710 27 ft 78 kts 302°
2026-05-06 10:30 25.25380 55.36993 27 ft 137 kts 302°
2026-05-06 10:30 25.25935 55.35989 200 ft 159 kts 302°
2026-05-06 10:30 25.26492 55.34961 727 ft 157 kts 305°
2026-05-06 10:30 25.27078 55.33916 1068 ft 163 kts 302°
2026-05-06 10:31 25.27691 55.32827 1489 ft 169 kts 301°
2026-05-06 10:31 25.28318 55.31700 1819 ft 180 kts 299°
2026-05-06 10:31 25.29034 55.30482 1978 ft 201 kts 310°
2026-05-06 10:31 25.30279 55.29590 2238 ft 227 kts 343°
2026-05-06 10:32 25.31918 55.29465 2540 ft 249 kts
2026-05-06 10:32 25.33735 55.29545 2729 ft 273 kts
2026-05-06 10:32 25.35704 55.29612 3000 ft 293 kts
2026-05-06 10:32 25.37787 55.29686 3182 ft 312 kts
2026-05-06 10:33 25.39945 55.30375 3388 ft 327 kts 30°
2026-05-06 10:33 25.41663 55.31951 3907 ft 327 kts 51°
2026-05-06 10:33 25.43080 55.33913 4549 ft 327 kts 54°
2026-05-06 10:33 25.44463 55.35918 5126 ft 329 kts 54°
2026-05-06 10:34 25.45870 55.37928 5715 ft 332 kts 54°
2026-05-06 10:34 25.47301 55.39931 6348 ft 332 kts 53°
2026-05-06 10:34 25.48755 55.41935 6913 ft 334 kts 53°
2026-05-06 10:34 25.50193 55.43965 7484 ft 336 kts 54°
2026-05-06 10:35 25.51603 55.46021 8088 ft 336 kts 57°
2026-05-06 10:35 25.52542 55.48361 8690 ft 333 kts 80°
2026-05-06 10:35 25.52612 55.50895 9308 ft 333 kts 100°
2026-05-06 10:35 25.51814 55.53293 9871 ft 336 kts 121°
2026-05-06 10:36 25.50681 55.55548 10433 ft 338 kts 110°
2026-05-06 10:36 25.50120 55.58078 11028 ft 340 kts 100°
2026-05-06 10:36 25.49773 55.60687 11579 ft 344 kts 98°
2026-05-06 10:36 25.49407 55.63329 12091 ft 350 kts 99°
2026-05-06 10:37 25.48973 55.65972 12766 ft 350 kts 101°
2026-05-06 10:37 25.48489 55.68625 13319 ft 355 kts 102°
2026-05-06 10:37 25.47970 55.71313 13826 ft 359 kts 102°
2026-05-06 10:37 25.47433 55.74033 14356 ft 362 kts 102°
2026-05-06 10:38 25.46891 55.76764 14896 ft 365 kts 102°
2026-05-06 10:38 25.46341 55.79530 15339 ft 371 kts 102°
2026-05-06 10:38 25.45786 55.82329 15853 ft 374 kts 102°
2026-05-06 10:38 25.45225 55.85153 16347 ft 377 kts 102°
2026-05-06 10:39 25.44660 55.88003 16824 ft 382 kts 102°
2026-05-06 10:39 25.44094 55.90848 17306 ft 385 kts 102°
2026-05-06 10:39 25.43508 55.93797 17771 ft 389 kts 102°
2026-05-06 10:39 25.42930 55.96697 18226 ft 393 kts 102°
2026-05-06 10:40 25.42340 55.99661 18660 ft 396 kts 102°
2026-05-06 10:40 25.41743 56.02649 19041 ft 400 kts 102°
2026-05-06 10:40 25.41139 56.05671 19424 ft 404 kts 102°
2026-05-06 10:40 25.40531 56.08714 19837 ft 406 kts 102°
2026-05-06 10:41 25.39916 56.11782 20211 ft 411 kts 102°
2026-05-06 10:41 25.39295 56.14878 20583 ft 414 kts 102°
2026-05-06 10:41 25.38670 56.17991 21052 ft 415 kts 102°
2026-05-06 10:41 25.38041 56.21122 21401 ft 419 kts 102°
2026-05-06 10:42 25.37405 56.24283 21784 ft 422 kts 102°
2026-05-06 10:42 25.36765 56.27464 22189 ft 425 kts 103°
2026-05-06 10:42 25.36119 56.30659 22565 ft 428 kts 103°
2026-05-06 10:42 25.35470 56.33877 22915 ft 431 kts 102°
2026-05-06 10:43 25.34813 56.37129 23279 ft 434 kts 103°
2026-05-06 10:43 25.34152 56.40397 23597 ft 437 kts 103°
2026-05-06 10:43 25.33485 56.43687 23902 ft 440 kts 103°
2026-05-06 10:44 25.32135 56.50341 24488 ft 447 kts 103°
2026-05-06 10:44 25.31451 56.53703 24780 ft 450 kts 103°
2026-05-06 10:44 25.30763 56.57083 25067 ft 453 kts 103°
2026-05-06 10:44 25.29948 56.60450 25364 ft 455 kts 109°
2026-05-06 10:45 25.28780 56.63703 25659 ft 457 kts 114°
2026-05-06 10:45 25.27530 56.66946 25965 ft 460 kts 114°
2026-05-06 10:45 25.26288 56.70224 26279 ft 463 kts 114°
2026-05-06 10:45 25.25044 56.73517 26582 ft 467 kts 114°
2026-05-06 10:46 25.23789 56.76838 26890 ft 470 kts 114°
2026-05-06 10:46 25.22524 56.80178 27218 ft 473 kts 114°
2026-05-06 10:46 25.21249 56.83537 27561 ft 476 kts 114°
2026-05-06 10:46 25.19982 56.86872 27869 ft 480 kts 114°
2026-05-06 10:47 25.18662 56.90342 28222 ft 484 kts 114°
2026-05-06 10:47 25.17354 56.93777 28586 ft 487 kts 114°
2026-05-06 10:47 25.16037 56.97234 28942 ft 491 kts 114°
2026-05-06 10:47 25.14707 57.00722 29329 ft 494 kts 114°
2026-05-06 10:48 25.13369 57.04227 29757 ft 497 kts 114°
2026-05-06 10:48 25.12021 57.07758 30081 ft 501 kts 114°
2026-05-06 10:48 25.10664 57.11307 30454 ft 504 kts 114°
2026-05-06 10:48 25.09295 57.14885 30750 ft 508 kts 114°
2026-05-06 10:49 25.07917 57.18484 31108 ft 511 kts 114°
2026-05-06 10:49 25.06549 57.22053 31458 ft 514 kts 114°
2026-05-06 10:49 25.05152 57.25696 31797 ft 517 kts 114°
2026-05-06 10:49 25.03746 57.29357 32137 ft 520 kts 114°
2026-05-06 10:50 25.02332 57.33037 32478 ft 523 kts 114°
2026-05-06 10:50 25.00909 57.36738 32813 ft 526 kts 114°
2026-05-06 10:50 24.99473 57.40467 33132 ft 530 kts 114°
2026-05-06 10:50 24.98029 57.44214 33511 ft 532 kts 114°
2026-05-06 10:51 24.96580 57.47973 33835 ft 535 kts 114°
2026-05-06 10:51 24.95120 57.51756 34135 ft 537 kts 114°
2026-05-06 10:51 24.93655 57.55548 34498 ft 538 kts 114°
2026-05-06 10:51 24.92190 57.59339 34920 ft 538 kts 114°
2026-05-06 10:52 24.90727 57.63122 35408 ft 536 kts 115°
2026-05-06 10:52 24.89269 57.66887 35885 ft 534 kts 115°
2026-05-06 10:52 24.87810 57.70649 36310 ft 533 kts 115°
2026-05-06 10:52 24.86357 57.74395 36744 ft 533 kts 115°
2026-05-06 10:53 24.84891 57.78168 36805 ft 537 kts 115°
2026-05-06 10:53 24.82516 57.85904 36803 ft 534 kts 104°
2026-05-06 10:54 24.80926 57.93890 36803 ft 535 kts 103°
2026-05-06 10:54 24.79300 58.01880 36801 ft 535 kts 103°
2026-05-06 10:55 24.77668 58.09867 36803 ft 535 kts 103°
2026-05-06 10:55 24.76035 58.17849 36803 ft 535 kts 103°
2026-05-06 10:56 24.74398 58.25831 36798 ft 535 kts 103°
2026-05-06 10:56 24.72767 58.33757 36802 ft 535 kts 103°
2026-05-06 10:57 24.71121 58.41741 36799 ft 535 kts 104°
2026-05-06 10:57 24.69470 58.49719 36802 ft 535 kts 104°
2026-05-06 10:58 24.67813 58.57705 36801 ft 536 kts 104°
2026-05-06 10:58 24.66153 58.65686 36800 ft 536 kts 104°
2026-05-06 10:59 24.64487 58.73672 36805 ft 536 kts 104°
2026-05-06 10:59 24.62817 58.81657 36803 ft 536 kts 104°
2026-05-06 11:00 24.61142 58.89642 36801 ft 536 kts 104°
2026-05-06 11:00 24.59464 58.97616 36803 ft 536 kts 104°
2026-05-06 11:01 24.57782 59.05590 36807 ft 536 kts 103°
2026-05-06 11:01 24.56096 59.13561 36808 ft 535 kts 103°
2026-05-06 11:02 24.54418 59.21474 36801 ft 535 kts 103°
2026-05-06 11:02 24.52727 59.29420 36805 ft 534 kts 103°
2026-05-06 11:03 24.51031 59.37362 36799 ft 534 kts 103°
2026-05-06 11:03 24.49334 59.45294 36795 ft 534 kts 104°
2026-05-06 11:04 24.47633 59.53221 36796 ft 533 kts 104°
2026-05-06 11:04 24.45927 59.61148 36800 ft 533 kts 104°
2026-05-06 11:05 24.44217 59.69076 36789 ft 534 kts 104°
2026-05-06 11:05 24.42504 59.76993 36806 ft 533 kts 104°
2026-05-06 11:06 24.40788 59.84902 36800 ft 533 kts 104°
2026-05-06 11:06 24.39068 59.92814 36797 ft 533 kts 104°
2026-05-06 11:07 24.37343 60.00721 36803 ft 533 kts 104°
2026-05-06 11:07 24.35909 60.07285 36804 ft 533 kts 104°
2026-05-06 11:08 24.34179 60.15182 36799 ft 533 kts 104°
2026-05-06 11:08 24.32446 60.23078 36795 ft 533 kts 104°
2026-05-06 11:09 24.30709 60.30974 36790 ft 533 kts 104°
2026-05-06 11:09 24.28968 60.38862 36808 ft 532 kts 104°
2026-05-06 11:10 24.27224 60.46747 36808 ft 532 kts 104°
2026-05-06 11:10 24.25477 60.54624 36799 ft 532 kts 104°
2026-05-06 11:11 24.23727 60.62493 36804 ft 532 kts 104°
2026-05-06 11:11 24.21973 60.70359 36805 ft 531 kts 104°
2026-05-06 11:12 24.20228 60.78173 36801 ft 532 kts 104°
2026-05-06 11:12 24.18470 60.86041 36804 ft 532 kts 104°
2026-05-06 11:13 24.16708 60.93909 36804 ft 532 kts 104°
2026-05-06 11:13 24.14941 61.01776 36820 ft 532 kts 104°
2026-05-06 11:14 24.13170 61.09641 36810 ft 532 kts 104°
2026-05-06 11:14 24.11397 61.17492 36811 ft 531 kts 104°
2026-05-06 11:15 24.09620 61.25345 36806 ft 531 kts 104°
2026-05-06 11:15 24.07968 61.33225 36810 ft 531 kts 98°
2026-05-06 11:16 24.07342 61.41270 36807 ft 531 kts 93°
2026-05-06 11:16 24.06868 61.49348 36807 ft 532 kts 93°
2026-05-06 11:17 24.06383 61.57420 36811 ft 532 kts 93°
2026-05-06 11:17 24.05898 61.65451 36810 ft 532 kts 93°
2026-05-06 11:18 24.05407 61.73533 36811 ft 533 kts 93°
2026-05-06 11:18 24.04911 61.81613 36829 ft 532 kts 94°
2026-05-06 11:19 24.04412 61.89678 36822 ft 531 kts 94°
2026-05-06 11:19 24.03909 61.97739 36817 ft 531 kts 94°
2026-05-06 11:20 24.03402 62.05789 36809 ft 530 kts 94°
2026-05-06 11:20 24.02891 62.13835 36806 ft 530 kts 94°
2026-05-06 11:21 24.02377 62.21873 36802 ft 530 kts 94°
2026-05-06 11:21 24.01858 62.29912 36807 ft 530 kts 94°
2026-05-06 11:22 24.01335 62.37960 36810 ft 531 kts 94°
2026-05-06 11:22 24.00807 62.46008 36811 ft 531 kts 94°
2026-05-06 11:23 24.00274 62.54068 36815 ft 531 kts 94°
2026-05-06 11:23 23.99737 62.62131 36809 ft 532 kts 94°
2026-05-06 11:24 23.99195 62.70201 36816 ft 532 kts 94°
2026-05-06 11:24 23.98649 62.78274 36811 ft 533 kts 94°
2026-05-06 11:25 23.98098 62.86352 36825 ft 532 kts 94°
2026-05-06 11:25 23.97543 62.94418 36824 ft 532 kts 94°
2026-05-06 11:26 23.96984 63.02489 36820 ft 531 kts 94°
2026-05-06 11:26 23.96422 63.10538 36824 ft 531 kts 94°
2026-05-06 11:27 23.95856 63.18584 36805 ft 531 kts 94°
2026-05-06 11:27 23.95287 63.26628 36802 ft 531 kts 94°
2026-05-06 11:28 23.94713 63.34671 36804 ft 531 kts 94°
2026-05-06 11:28 23.94134 63.42721 36806 ft 531 kts 94°
2026-05-06 11:29 23.93550 63.50777 36805 ft 532 kts 94°
2026-05-06 11:29 23.92966 63.58784 36810 ft 532 kts 94°
2026-05-06 11:30 23.92373 63.66855 36813 ft 533 kts 94°
2026-05-06 11:30 23.91775 63.74927 36818 ft 533 kts 94°
2026-05-06 11:31 23.91173 63.83004 36818 ft 533 kts 94°
2026-05-06 11:31 23.90566 63.91080 36815 ft 533 kts 94°
2026-05-06 11:32 23.89955 63.99161 36829 ft 533 kts 94°
2026-05-06 11:32 23.89341 64.07228 36810 ft 533 kts 94°
2026-05-06 11:33 23.88723 64.15287 36807 ft 532 kts 94°
2026-05-06 11:33 23.88101 64.23345 36804 ft 532 kts 94°
2026-05-06 11:34 23.87475 64.31406 36806 ft 532 kts 94°
2026-05-06 11:34 23.86844 64.39462 36807 ft 532 kts 94°
2026-05-06 11:35 23.86209 64.47522 36809 ft 532 kts 94°
2026-05-06 11:35 23.85570 64.55580 36808 ft 533 kts 94°
2026-05-06 11:36 23.84927 64.63641 36807 ft 533 kts 94°
2026-05-06 11:36 23.84279 64.71709 36812 ft 533 kts 94°
2026-05-06 11:37 23.83629 64.79771 36812 ft 533 kts 94°
2026-05-06 11:37 23.83338 64.87840 36810 ft 532 kts 88°
2026-05-06 11:38 23.83412 64.95925 36813 ft 532 kts 88°
2026-05-06 11:38 23.83468 65.04009 36808 ft 532 kts 88°
2026-05-06 11:39 23.83512 65.12047 36809 ft 533 kts 88°
2026-05-06 11:39 23.83552 65.20132 36809 ft 533 kts 88°
2026-05-06 11:40 23.83587 65.28222 36820 ft 532 kts 88°
2026-05-06 11:40 23.83617 65.36277 36814 ft 534 kts 88°
2026-05-06 11:41 23.84167 65.44348 36809 ft 531 kts 82°
2026-05-06 11:41 23.84928 65.52358 36812 ft 530 kts 82°
2026-05-06 11:42 23.85680 65.60377 36806 ft 531 kts 82°
2026-05-06 11:42 23.86424 65.68404 36809 ft 531 kts 82°
2026-05-06 11:43 23.87162 65.76431 36810 ft 531 kts 82°
2026-05-06 11:43 23.87897 65.84462 36813 ft 531 kts 82°
2026-05-06 11:44 23.88991 65.96511 36807 ft 531 kts 82°
2026-05-06 11:44 23.89710 66.04488 36808 ft 531 kts 82°
2026-05-06 11:45 23.90430 66.12530 36803 ft 532 kts 83°
2026-05-06 11:45 23.91146 66.20568 36805 ft 532 kts 83°
2026-05-06 11:46 23.91859 66.28617 36798 ft 532 kts 82°
2026-05-06 11:46 23.92567 66.36668 36799 ft 532 kts 83°
2026-05-06 11:47 23.93272 66.44726 36801 ft 533 kts 83°
2026-05-06 11:47 23.93973 66.52791 36804 ft 533 kts 83°
2026-05-06 11:48 23.94671 66.60865 36797 ft 534 kts 82°
2026-05-06 11:48 23.95366 66.68949 36799 ft 534 kts 82°
2026-05-06 11:49 23.96056 66.77038 36802 ft 535 kts 83°
2026-05-06 11:49 23.96743 66.85140 36805 ft 535 kts 83°
2026-05-06 11:50 23.97426 66.93243 36799 ft 536 kts 82°
2026-05-06 11:50 23.98106 67.01362 36803 ft 536 kts 82°
2026-05-06 11:51 23.98781 67.09479 36801 ft 537 kts 83°
2026-05-06 11:51 23.99454 67.17611 36802 ft 537 kts 83°
2026-05-06 11:52 24.00121 67.25741 36793 ft 537 kts 83°
2026-05-06 11:52 24.00781 67.33822 36793 ft 537 kts 83°
2026-05-06 11:53 24.01441 67.41964 36793 ft 538 kts 83°
2026-05-06 11:53 24.02097 67.50112 36795 ft 538 kts 83°
2026-05-06 11:54 24.02749 67.58260 36784 ft 539 kts 83°
2026-05-06 11:54 24.03398 67.66425 36791 ft 539 kts 83°
2026-05-06 11:55 24.04043 67.74599 36791 ft 540 kts 83°
2026-05-06 11:55 24.04684 67.82781 36786 ft 540 kts 83°
2026-05-06 11:56 24.05322 67.90972 36788 ft 540 kts 83°
2026-05-06 11:56 24.05955 67.99164 36785 ft 540 kts 83°
2026-05-06 11:57 24.06478 68.05971 36783 ft 540 kts 83°
2026-05-06 11:57 24.07103 68.14161 36783 ft 540 kts 83°
2026-05-06 11:58 24.07723 68.22348 36770 ft 541 kts 83°
2026-05-06 11:58 24.08341 68.30549 36766 ft 541 kts 83°
2026-05-06 11:59 24.08953 68.38750 36760 ft 541 kts 83°
2026-05-06 11:59 24.09562 68.46958 36756 ft 541 kts 83°
2026-05-06 12:00 24.10166 68.55172 36765 ft 542 kts 83°
2026-05-06 12:00 24.10768 68.63399 36756 ft 543 kts 83°
2026-05-06 12:01 24.11367 68.71635 36751 ft 543 kts 83°
2026-05-06 12:01 24.11693 68.79901 36747 ft 545 kts 89°
2026-05-06 12:02 24.11551 68.88191 36767 ft 544 kts 89°
2026-05-06 12:02 24.11446 68.96482 36752 ft 544 kts 89°
2026-05-06 12:03 24.11328 69.04768 36748 ft 544 kts 89°
2026-05-06 12:03 24.11201 69.13046 36737 ft 544 kts 89°
2026-05-06 12:04 24.11070 69.21269 36741 ft 544 kts 89°
2026-05-06 12:04 24.10934 69.29557 36713 ft 545 kts 89°
2026-05-06 12:05 24.10794 69.37846 36729 ft 545 kts 89°
2026-05-06 12:05 24.10649 69.46143 36719 ft 545 kts 89°
2026-05-06 12:06 24.10498 69.54448 36725 ft 546 kts 89°
2026-05-06 12:06 24.10344 69.62766 36716 ft 547 kts 89°
2026-05-06 12:07 24.10185 69.71085 36732 ft 547 kts 89°
2026-05-06 12:07 24.10021 69.79412 36732 ft 547 kts 89°
2026-05-06 12:08 24.09852 69.87740 36730 ft 548 kts 89°
2026-05-06 12:08 24.09679 69.96078 36728 ft 548 kts 89°
2026-05-06 12:09 24.09502 70.04425 36733 ft 548 kts 89°
2026-05-06 12:09 24.09319 70.12771 36728 ft 549 kts 89°
2026-05-06 12:10 24.09132 70.21115 36740 ft 549 kts 89°
2026-05-06 12:10 24.08941 70.29468 36727 ft 549 kts 89°
2026-05-06 12:11 24.08745 70.37827 36732 ft 550 kts 89°
2026-05-06 12:11 24.08544 70.46191 36733 ft 550 kts 89°
2026-05-06 12:12 24.08338 70.54550 36745 ft 550 kts 89°
2026-05-06 12:12 24.08128 70.62925 36728 ft 551 kts 89°
2026-05-06 12:13 24.07913 70.71312 36733 ft 551 kts 89°
2026-05-06 12:13 24.07695 70.79649 36735 ft 552 kts 89°
2026-05-06 12:14 24.07470 70.88040 36747 ft 552 kts 89°
2026-05-06 12:14 24.07242 70.96438 36730 ft 553 kts 89°
2026-05-06 12:15 24.07009 71.04848 36728 ft 553 kts 89°
2026-05-06 12:15 24.06771 71.13263 36731 ft 553 kts 89°
2026-05-06 12:16 24.06530 71.21679 36737 ft 554 kts 89°
2026-05-06 12:16 24.06283 71.30099 36734 ft 554 kts 89°
2026-05-06 12:17 24.06033 71.38518 36734 ft 554 kts 89°
2026-05-06 12:17 24.05777 71.46932 36733 ft 553 kts 89°
2026-05-06 12:18 24.05517 71.55347 36734 ft 553 kts 89°
2026-05-06 12:18 24.05253 71.63766 36724 ft 554 kts 89°
2026-05-06 12:19 24.04984 71.72185 36722 ft 554 kts 89°
2026-05-06 12:19 24.04712 71.80549 36722 ft 554 kts 89°
2026-05-06 12:20 24.04433 71.88972 36727 ft 554 kts 89°
2026-05-06 12:20 24.04150 71.97399 36721 ft 555 kts 89°
2026-05-06 12:21 24.03861 72.05842 36728 ft 555 kts 89°
2026-05-06 12:21 24.03568 72.14292 36734 ft 556 kts 89°
2026-05-06 12:22 24.03270 72.22736 36740 ft 556 kts 89°
2026-05-06 12:22 24.02967 72.31194 36743 ft 556 kts 89°
2026-05-06 12:23 24.02659 72.39647 36753 ft 557 kts 89°
2026-05-06 12:23 24.02347 72.48108 36754 ft 557 kts 89°
2026-05-06 12:24 24.02030 72.56573 36763 ft 557 kts 89°
2026-05-06 12:24 24.01709 72.65033 36755 ft 557 kts 90°
2026-05-06 12:25 24.01597 72.73427 36761 ft 555 kts 85°
2026-05-06 12:25 24.01793 72.81861 36768 ft 555 kts 85°
2026-05-06 12:26 24.01933 72.90293 36766 ft 555 kts 86°
2026-05-06 12:26 24.02034 72.98727 36768 ft 555 kts 86°
2026-05-06 12:27 24.02124 73.07175 36772 ft 555 kts 86°
2026-05-06 12:27 24.02211 73.15620 36780 ft 555 kts 86°
2026-05-06 12:28 24.02293 73.24068 36789 ft 556 kts 86°
2026-05-06 12:28 24.02370 73.32522 36794 ft 556 kts 86°
2026-05-06 12:29 24.02443 73.40981 36799 ft 557 kts 86°
2026-05-06 12:29 24.02512 73.49450 36797 ft 557 kts 86°
2026-05-06 12:30 24.02576 73.57916 36799 ft 557 kts 86°
2026-05-06 12:30 24.02635 73.66383 36804 ft 557 kts 87°
2026-05-06 12:31 24.02690 73.74856 36795 ft 557 kts 87°
2026-05-06 12:31 24.02742 73.83320 36797 ft 556 kts 87°
2026-05-06 12:32 24.02789 73.91777 36788 ft 556 kts 87°
2026-05-06 12:32 24.02831 74.00244 36789 ft 556 kts 87°
2026-05-06 12:33 24.02869 74.08718 36788 ft 557 kts 87°
2026-05-06 12:33 24.02980 74.17200 36791 ft 558 kts 86°
2026-05-06 12:34 24.03118 74.25683 36801 ft 558 kts 86°
2026-05-06 12:34 24.03239 74.34177 36808 ft 559 kts 86°
2026-05-06 12:35 24.03351 74.42627 36816 ft 559 kts 86°
2026-05-06 12:35 24.03459 74.51155 37123 ft 562 kts 86°
2026-05-06 12:36 24.03511 74.55415 37634 ft 560 kts 87°
2026-05-06 12:36 24.03561 74.59673 38112 ft 559 kts 87°
2026-05-06 12:36 24.03610 74.63915 38564 ft 558 kts 87°
2026-05-06 12:36 24.03647 74.68172 38776 ft 562 kts 89°
2026-05-06 12:37 24.02854 74.76581 38824 ft 554 kts 101°
2026-05-06 12:37 24.00811 74.84733 38822 ft 557 kts 107°
2026-05-06 12:38 23.98534 74.92830 38824 ft 557 kts 107°
2026-05-06 12:38 23.96261 75.00932 38824 ft 557 kts 107°
2026-05-06 12:39 23.93985 75.09003 38825 ft 554 kts 107°
2026-05-06 12:39 23.91709 75.17044 38810 ft 553 kts 107°
2026-05-06 12:40 23.89436 75.25056 38795 ft 551 kts 107°
2026-05-06 12:40 23.87166 75.33043 38789 ft 550 kts 107°
2026-05-06 12:41 23.84910 75.40963 38765 ft 549 kts 107°
2026-05-06 12:41 23.82637 75.48926 38798 ft 551 kts 108°
2026-05-06 12:42 23.80336 75.56971 38811 ft 556 kts 108°
2026-05-06 12:42 23.78028 75.65019 38807 ft 556 kts 108°
2026-05-06 12:43 23.75717 75.73063 38806 ft 556 kts 108°
2026-05-06 12:43 23.73399 75.81115 38809 ft 557 kts 108°
2026-05-06 12:44 23.71077 75.89161 38811 ft 556 kts 108°
2026-05-06 12:44 23.68752 75.97200 38809 ft 555 kts 108°
2026-05-06 12:45 23.66418 76.05238 38811 ft 555 kts 108°
2026-05-06 12:46 23.62900 76.17272 38810 ft 555 kts 108°
2026-05-06 12:46 23.60549 76.25298 38809 ft 555 kts 108°
2026-05-06 12:47 23.58196 76.33315 38809 ft 555 kts 108°
2026-05-06 12:47 23.56239 76.39972 38804 ft 555 kts 108°
2026-05-06 12:48 23.53878 76.47984 38804 ft 555 kts 108°
2026-05-06 12:48 23.51511 76.55999 38804 ft 556 kts 109°
2026-05-06 12:49 23.49139 76.64014 38803 ft 556 kts 109°
2026-05-06 12:49 23.46765 76.72023 38810 ft 555 kts 109°
2026-05-06 12:50 23.44385 76.80031 38811 ft 556 kts 109°
2026-05-06 12:50 23.42003 76.88033 38819 ft 556 kts 109°
2026-05-06 12:51 23.39617 76.96033 38813 ft 556 kts 109°
2026-05-06 12:51 23.37228 77.04024 38811 ft 555 kts 109°
2026-05-06 12:52 23.34850 77.11962 38811 ft 555 kts 109°
2026-05-06 12:52 23.32454 77.19944 38802 ft 555 kts 109°
2026-05-06 12:53 23.30053 77.27926 38804 ft 555 kts 109°
2026-05-06 12:53 23.27639 77.35900 38804 ft 555 kts 110°
2026-05-06 12:54 23.24996 77.43779 38800 ft 554 kts 112°
2026-05-06 12:54 23.22329 77.51633 38794 ft 553 kts 111°
2026-05-06 12:55 23.19687 77.59492 38808 ft 553 kts 111°
2026-05-06 12:55 23.17050 77.67345 38798 ft 554 kts 111°
2026-05-06 12:56 23.14408 77.75203 38809 ft 554 kts 111°
2026-05-06 12:56 23.11761 77.83058 38797 ft 554 kts 111°
2026-05-06 12:57 23.09105 77.90922 38800 ft 554 kts 111°
2026-05-06 12:57 23.06448 77.98776 38795 ft 554 kts 111°
2026-05-06 12:58 23.03785 78.06633 38793 ft 554 kts 112°
2026-05-06 12:58 23.01118 78.14489 38800 ft 555 kts 112°
2026-05-06 12:59 22.98446 78.22344 38783 ft 555 kts 112°
2026-05-06 12:59 22.95795 78.30127 38807 ft 554 kts 112°
2026-05-06 13:00 22.93122 78.37956 38806 ft 553 kts 112°
2026-05-06 13:00 22.90445 78.45783 38809 ft 553 kts 112°
2026-05-06 13:01 22.87768 78.53598 38806 ft 553 kts 112°
2026-05-06 13:01 22.85088 78.61406 38805 ft 553 kts 112°
2026-05-06 13:02 22.82404 78.69211 38812 ft 552 kts 112°
2026-05-06 13:02 22.79717 78.77012 38815 ft 552 kts 112°
2026-05-06 13:03 22.77024 78.84814 38817 ft 552 kts 112°
2026-05-06 13:03 22.74328 78.92612 38817 ft 553 kts 112°
2026-05-06 13:04 22.71628 79.00408 38821 ft 552 kts 112°
2026-05-06 13:04 22.68928 79.08189 38836 ft 552 kts 112°
2026-05-06 13:05 22.66240 79.15923 38820 ft 552 kts 112°
2026-05-06 13:05 22.63531 79.23701 38822 ft 552 kts 112°
2026-05-06 13:06 22.60819 79.31478 38827 ft 552 kts 112°
2026-05-06 13:06 22.58104 79.39248 38824 ft 552 kts 112°
2026-05-06 13:07 22.55390 79.47022 38820 ft 552 kts 112°
2026-05-06 13:07 22.52693 79.54805 38807 ft 552 kts 112°
2026-05-06 13:08 22.49994 79.62585 38809 ft 552 kts 112°
2026-05-06 13:08 22.47291 79.70352 38820 ft 553 kts 112°
2026-05-06 13:09 22.44578 79.78131 38817 ft 552 kts 112°
2026-05-06 13:09 22.41871 79.85881 38826 ft 551 kts 112°
2026-05-06 13:10 22.39160 79.93628 38817 ft 550 kts 112°
2026-05-06 13:10 22.36468 80.01309 38811 ft 550 kts 112°
2026-05-06 13:11 22.33739 80.09080 38808 ft 549 kts 112°
2026-05-06 13:11 22.31046 80.16736 38805 ft 549 kts 112°
2026-05-06 13:12 22.28332 80.24438 38814 ft 548 kts 112°
2026-05-06 13:12 22.25616 80.32132 38817 ft 548 kts 112°
2026-05-06 13:13 22.22901 80.39810 38816 ft 548 kts 112°
2026-05-06 13:13 22.20184 80.47487 38816 ft 547 kts 112°
2026-05-06 13:14 22.17470 80.55152 38799 ft 546 kts 112°
2026-05-06 13:14 22.14760 80.62793 38845 ft 544 kts 112°
2026-05-06 13:15 22.12053 80.70408 38838 ft 544 kts 112°
2026-05-06 13:15 22.09343 80.78019 38833 ft 543 kts 112°
2026-05-06 13:16 22.06638 80.85608 38825 ft 542 kts 112°
2026-05-06 13:16 22.03929 80.93191 38814 ft 542 kts 112°
2026-05-06 13:17 22.01219 81.00766 38814 ft 542 kts 112°
2026-05-06 13:17 21.98506 81.08336 38797 ft 541 kts 112°
2026-05-06 13:18 21.95792 81.15895 38802 ft 541 kts 113°
2026-05-06 13:18 21.93076 81.23450 38788 ft 541 kts 113°
2026-05-06 13:19 21.90360 81.30990 38795 ft 540 kts 113°
2026-05-06 13:19 21.87642 81.38525 38785 ft 540 kts 113°
2026-05-06 13:20 21.84940 81.46001 38781 ft 539 kts 113°
2026-05-06 13:20 21.82216 81.53526 38781 ft 539 kts 113°
2026-05-06 13:21 21.79491 81.61045 38780 ft 539 kts 113°
2026-05-06 13:21 21.77061 81.68682 38772 ft 541 kts 108°
2026-05-06 13:22 21.74854 81.76418 38775 ft 541 kts 109°
2026-05-06 13:22 21.72632 81.84147 38776 ft 541 kts 109°
2026-05-06 13:23 21.70402 81.91883 38780 ft 542 kts 109°
2026-05-06 13:23 21.68166 81.99626 38778 ft 542 kts 109°
2026-05-06 13:24 21.65928 82.07357 38785 ft 542 kts 109°
2026-05-06 13:24 21.63684 82.15096 38781 ft 542 kts 109°
2026-05-06 13:25 21.61438 82.22825 38800 ft 541 kts 109°
2026-05-06 13:25 21.59194 82.30534 38802 ft 540 kts 109°
2026-05-06 13:26 21.56948 82.38232 38793 ft 540 kts 109°
2026-05-06 13:26 21.54716 82.45872 38804 ft 539 kts 109°
2026-05-06 13:27 21.52470 82.53543 38796 ft 538 kts 109°
2026-05-06 13:27 21.50223 82.61205 38806 ft 538 kts 109°
2026-05-06 13:28 21.47866 82.68815 38804 ft 536 kts 114°
2026-05-06 13:28 21.45011 82.76199 38801 ft 535 kts 114°
2026-05-06 13:29 21.42180 82.83588 38796 ft 535 kts 114°
2026-05-06 13:29 21.39346 82.90969 38792 ft 535 kts 115°
2026-05-06 13:30 21.36508 82.98345 38796 ft 535 kts 115°
2026-05-06 13:30 21.33667 83.05715 38794 ft 535 kts 115°
2026-05-06 13:31 21.30826 83.13075 38799 ft 534 kts 114°
2026-05-06 13:31 21.27977 83.20443 38793 ft 535 kts 115°
2026-05-06 13:32 21.25125 83.27810 38800 ft 535 kts 115°
2026-05-06 13:32 21.22269 83.35174 38801 ft 535 kts 115°
2026-05-06 13:33 21.19406 83.42546 38803 ft 536 kts 115°
2026-05-06 13:33 21.16540 83.49913 38801 ft 536 kts 115°
2026-05-06 13:34 21.13670 83.57281 38808 ft 535 kts 114°
2026-05-06 13:34 21.10820 83.64586 38797 ft 535 kts 114°
2026-05-06 13:35 21.07935 83.71971 38795 ft 534 kts 115°
2026-05-06 13:35 21.05085 83.79257 38786 ft 534 kts 115°
2026-05-06 13:36 21.02216 83.86576 38773 ft 533 kts 115°
2026-05-06 13:36 20.99351 83.93885 38792 ft 532 kts 114°
2026-05-06 13:37 20.96489 84.01176 38786 ft 531 kts 114°
2026-05-06 13:37 20.93628 84.08451 38779 ft 530 kts 115°
2026-05-06 13:38 20.90763 84.15725 38777 ft 530 kts 115°
2026-05-06 13:38 20.87902 84.22979 38774 ft 529 kts 115°
2026-05-06 13:39 20.85520 84.29009 38770 ft 529 kts 115°
2026-05-06 13:39 20.82658 84.36246 38770 ft 529 kts 115°
2026-05-06 13:40 20.79308 84.44702 38766 ft 528 kts 115°
2026-05-06 13:40 20.76926 84.50709 38776 ft 528 kts 115°
2026-05-06 13:41 20.74057 84.57932 38772 ft 528 kts 115°
2026-05-06 13:41 20.71183 84.65155 38783 ft 528 kts 114°
2026-05-06 13:42 20.68313 84.72362 38797 ft 527 kts 114°
2026-05-06 13:42 20.65443 84.79555 38800 ft 526 kts 114°
2026-05-06 13:43 20.62574 84.86738 38799 ft 526 kts 115°
2026-05-06 13:43 20.59704 84.93914 38795 ft 526 kts 115°
2026-05-06 13:44 20.56830 85.01087 38787 ft 525 kts 115°
2026-05-06 13:44 20.53959 85.08244 38811 ft 524 kts 115°
2026-05-06 13:45 20.51085 85.15399 38795 ft 524 kts 115°
2026-05-06 13:45 20.46776 85.26107 38791 ft 523 kts 115°
2026-05-06 13:46 20.43903 85.33233 38791 ft 523 kts 115°
2026-05-06 13:46 20.41029 85.40353 38773 ft 523 kts 115°
2026-05-06 13:47 20.38160 85.47451 38814 ft 521 kts 115°
2026-05-06 13:47 20.35292 85.54538 38810 ft 520 kts 115°
2026-05-06 13:48 20.32425 85.61609 38807 ft 519 kts 115°
2026-05-06 13:48 20.29559 85.68670 38808 ft 519 kts 115°
2026-05-06 13:49 20.26697 85.75714 38807 ft 518 kts 115°
2026-05-06 13:49 20.23839 85.82754 38797 ft 518 kts 114°
2026-05-06 13:50 20.21235 85.89902 38790 ft 518 kts 112°
2026-05-06 13:50 20.18682 85.97073 38786 ft 517 kts 112°
2026-05-06 13:51 20.16094 86.04217 38783 ft 517 kts 112°
2026-05-06 13:51 20.13493 86.11353 38781 ft 517 kts 113°
2026-05-06 13:52 20.10908 86.18433 38783 ft 517 kts 113°
2026-05-06 13:52 20.08311 86.25565 38786 ft 517 kts 113°
2026-05-06 13:53 20.05714 86.32697 38781 ft 517 kts 113°
2026-05-06 13:53 20.03111 86.39829 38800 ft 518 kts 113°
2026-05-06 13:54 20.00502 86.46965 38804 ft 518 kts 113°
2026-05-06 13:54 19.97889 86.54104 38805 ft 518 kts 113°
2026-05-06 13:55 19.95271 86.61247 38792 ft 519 kts 113°
2026-05-06 13:55 19.92642 86.68408 38806 ft 520 kts 113°
2026-05-06 13:56 19.90009 86.75567 38814 ft 521 kts 113°
2026-05-06 13:56 19.87367 86.82737 38816 ft 521 kts 113°
2026-05-06 13:57 19.84725 86.89905 38825 ft 521 kts 113°
2026-05-06 13:57 19.82079 86.97068 38823 ft 521 kts 114°
2026-05-06 13:58 19.79427 87.04239 38813 ft 522 kts 114°
2026-05-06 13:58 19.76771 87.11408 38816 ft 521 kts 113°
2026-05-06 13:59 19.74117 87.18565 38828 ft 521 kts 114°
2026-05-06 13:59 19.71477 87.25672 38823 ft 521 kts 114°
2026-05-06 14:00 19.68818 87.32821 38830 ft 521 kts 114°
2026-05-06 14:00 19.66157 87.39965 38816 ft 521 kts 114°
2026-05-06 14:01 19.63491 87.47111 38825 ft 521 kts 114°
2026-05-06 14:01 19.60822 87.54258 38821 ft 521 kts 114°
2026-05-06 14:02 19.58151 87.61399 38827 ft 521 kts 114°
2026-05-06 14:02 19.55475 87.68542 38823 ft 521 kts 114°
2026-05-06 14:03 19.52797 87.75684 38823 ft 521 kts 114°
2026-05-06 14:03 19.50117 87.82820 38830 ft 521 kts 114°
2026-05-06 14:04 19.47433 87.89955 38830 ft 521 kts 114°
2026-05-06 14:04 19.44745 87.97093 38818 ft 521 kts 114°
2026-05-06 14:05 19.42058 88.04217 38837 ft 520 kts 114°
2026-05-06 14:05 19.39372 88.11331 38834 ft 520 kts 114°
2026-05-06 14:06 19.36685 88.18436 38833 ft 520 kts 114°
2026-05-06 14:06 19.33996 88.25539 38831 ft 519 kts 114°
2026-05-06 14:07 19.31307 88.32630 38830 ft 519 kts 114°
2026-05-06 14:07 19.28630 88.39678 38830 ft 519 kts 114°
2026-05-06 14:08 19.25937 88.46763 38832 ft 519 kts 114°
2026-05-06 14:08 19.23241 88.53845 38831 ft 519 kts 114°
2026-05-06 14:09 19.20539 88.60931 38835 ft 519 kts 114°
2026-05-06 14:09 19.17839 88.68019 38837 ft 520 kts 114°
2026-05-06 14:10 19.15230 88.75149 38840 ft 520 kts 113°
2026-05-06 14:10 19.12638 88.82291 38841 ft 520 kts 113°
2026-05-06 14:11 19.10035 88.89420 38855 ft 519 kts 114°
2026-05-06 14:11 19.07425 88.96542 38852 ft 519 kts 114°
2026-05-06 14:12 19.04815 89.03648 38848 ft 519 kts 114°
2026-05-06 14:12 19.02204 89.10750 38847 ft 518 kts 114°
2026-05-06 14:13 18.99592 89.17847 38844 ft 518 kts 114°
2026-05-06 14:13 18.96978 89.24938 38845 ft 518 kts 114°
2026-05-06 14:14 18.94361 89.32025 38842 ft 518 kts 114°
2026-05-06 14:14 18.91745 89.39104 38843 ft 517 kts 114°
2026-05-06 14:15 18.89124 89.46183 38845 ft 517 kts 114°
2026-05-06 14:15 18.86502 89.53257 38845 ft 517 kts 114°
2026-05-06 14:16 18.83878 89.60329 38847 ft 517 kts 114°
2026-05-06 14:16 18.81266 89.67358 38845 ft 518 kts 114°
2026-05-06 14:17 18.78618 89.74475 38845 ft 518 kts 114°
2026-05-06 14:17 18.76000 89.81500 38846 ft 518 kts 114°
2026-05-06 14:18 18.73345 89.88615 38850 ft 518 kts 114°
2026-05-06 14:18 18.70719 89.95644 38850 ft 518 kts 114°
2026-05-06 14:19 18.68077 90.02708 38847 ft 518 kts 114°
2026-05-06 14:19 18.65428 90.09780 38847 ft 518 kts 114°
2026-05-06 14:20 18.62777 90.16849 38848 ft 519 kts 114°
2026-05-06 14:20 18.60120 90.23923 38850 ft 519 kts 114°
2026-05-06 14:21 18.57461 90.30994 38849 ft 519 kts 114°
2026-05-06 14:21 18.54800 90.38062 38850 ft 519 kts 114°
2026-05-06 14:22 18.52136 90.45126 38848 ft 519 kts 114°
2026-05-06 14:22 18.49470 90.52189 38850 ft 519 kts 114°
2026-05-06 14:23 18.46799 90.59255 38848 ft 519 kts 114°
2026-05-06 14:23 18.44126 90.66317 38846 ft 519 kts 114°
2026-05-06 14:24 18.41452 90.73375 38867 ft 518 kts 114°
2026-05-06 14:24 18.38777 90.80424 38850 ft 518 kts 114°
2026-05-06 14:25 18.36102 90.87463 38844 ft 518 kts 114°
2026-05-06 14:25 18.33878 90.93310 38856 ft 518 kts 114°
2026-05-06 14:26 18.31200 91.00342 38846 ft 518 kts 114°
2026-05-06 14:26 18.28085 91.08511 38853 ft 517 kts 114°
2026-05-06 14:27 18.25837 91.14397 38850 ft 517 kts 114°
2026-05-06 14:27 18.23153 91.21417 38849 ft 518 kts 114°
2026-05-06 14:28 18.20463 91.28447 38846 ft 518 kts 114°
2026-05-06 14:28 18.17770 91.35473 38842 ft 518 kts 114°
2026-05-06 14:29 18.15076 91.42494 38844 ft 518 kts 114°
2026-05-06 14:29 18.12406 91.49443 38860 ft 518 kts 114°
2026-05-06 14:30 18.09694 91.56492 38865 ft 518 kts 114°
2026-05-06 14:30 18.06990 91.63513 38867 ft 517 kts 114°
2026-05-06 14:31 18.04290 91.70516 38861 ft 517 kts 114°
2026-05-06 14:31 18.01587 91.77516 38861 ft 517 kts 114°
2026-05-06 14:32 17.98883 91.84509 38862 ft 516 kts 114°
2026-05-06 14:32 17.96180 91.91496 38856 ft 516 kts 114°
2026-05-06 14:33 17.93476 91.98478 38859 ft 516 kts 114°
2026-05-06 14:33 17.90746 92.05439 38859 ft 515 kts 114°
2026-05-06 14:34 17.87985 92.12383 38860 ft 515 kts 114°
2026-05-06 14:34 17.85232 92.19326 38857 ft 515 kts 114°
2026-05-06 14:35 17.82482 92.26263 38855 ft 515 kts 114°
2026-05-06 14:35 17.79726 92.33204 38855 ft 515 kts 114°
2026-05-06 14:36 17.76973 92.40130 38859 ft 514 kts 114°
2026-05-06 14:36 17.74234 92.47011 38859 ft 514 kts 114°
2026-05-06 14:37 17.71478 92.53928 38865 ft 514 kts 114°
2026-05-06 14:37 17.68723 92.60834 38863 ft 513 kts 114°
2026-05-06 14:38 17.65966 92.67734 38855 ft 513 kts 114°
2026-05-06 14:38 17.63192 92.74672 38862 ft 512 kts 114°
2026-05-06 14:39 17.60435 92.81557 38861 ft 512 kts 114°
2026-05-06 14:39 17.57697 92.88390 38861 ft 512 kts 114°
2026-05-06 14:40 17.54922 92.95304 38859 ft 511 kts 114°
2026-05-06 14:40 17.52179 93.02131 38858 ft 511 kts 114°
2026-05-06 14:41 17.49420 93.08992 38857 ft 511 kts 114°
2026-05-06 14:41 17.46657 93.15851 38856 ft 511 kts 114°
2026-05-06 14:42 17.43895 93.22704 38856 ft 511 kts 114°
2026-05-06 14:42 17.41127 93.29561 38856 ft 511 kts 114°
2026-05-06 14:43 17.38360 93.36408 38854 ft 511 kts 114°
2026-05-06 14:43 17.35590 93.43254 38873 ft 510 kts 114°
2026-05-06 14:44 17.32823 93.50088 38871 ft 509 kts 114°
2026-05-06 14:45 17.28673 93.60319 38870 ft 509 kts 114°
2026-05-06 14:45 17.25907 93.67130 38868 ft 508 kts 114°
2026-05-06 14:46 17.23141 93.73931 38865 ft 508 kts 114°
2026-05-06 14:46 17.20373 93.80732 38864 ft 508 kts 114°
2026-05-06 14:47 17.17621 93.87483 38859 ft 508 kts 114°
2026-05-06 14:47 17.14852 93.94272 38858 ft 508 kts 114°
2026-05-06 14:48 17.12060 94.01107 38858 ft 507 kts 114°
2026-05-06 14:48 17.09305 94.07845 38857 ft 507 kts 114°
2026-05-06 14:49 17.06530 94.14624 38852 ft 507 kts 114°
2026-05-06 14:49 17.03751 94.21404 38850 ft 507 kts 114°
2026-05-06 14:50 17.00971 94.28181 38849 ft 507 kts 114°
2026-05-06 14:50 16.98189 94.34954 38862 ft 507 kts 114°
2026-05-06 14:51 16.95409 94.41715 38859 ft 507 kts 114°
2026-05-06 14:51 16.92628 94.48473 38854 ft 507 kts 114°
2026-05-06 14:52 16.89841 94.55236 38859 ft 507 kts 114°
2026-05-06 14:52 16.87054 94.61992 38856 ft 507 kts 114°
2026-05-06 14:53 16.84267 94.68740 38853 ft 506 kts 114°
2026-05-06 14:53 16.81479 94.75490 38856 ft 506 kts 114°
2026-05-06 14:54 16.78375 94.82070 38853 ft 505 kts 117°
2026-05-06 14:54 16.75198 94.88615 38850 ft 505 kts 117°
2026-05-06 14:55 16.72026 94.95157 38846 ft 505 kts 117°
2026-05-06 14:55 16.68848 95.01694 38853 ft 505 kts 117°
2026-05-06 14:56 16.65666 95.08228 38847 ft 505 kts 117°
2026-05-06 14:56 16.62503 95.14715 38852 ft 505 kts 117°
2026-05-06 14:57 16.59319 95.21238 38849 ft 505 kts 117°
2026-05-06 14:57 16.56141 95.27744 38852 ft 505 kts 117°
2026-05-06 14:58 16.52952 95.34266 38850 ft 505 kts 117°
2026-05-06 14:58 16.49764 95.40780 38854 ft 504 kts 117°